contact:dominique.lefevre@mio.osupytheas.fr, maurice.libes@osupytheas.fr, didier.mallarino@osupytheas.fr
Project:EMSO http://www.emso-fr.org/EMSO-France
Depth: 2436.0 m
Title:EMSO Ligure Ouest : Data MII capteur AQUADOPP
Date,Latitude,Longitude,X_East,Y_North,Z_Up,Amplitude_X,Amplitude_Y,Amplitude_Z,Batterie,SoundSpeed,Heading,Pitch,Roll,Pressure,TIS,Speed,Direction
, degrees North, degrees East, m.s-1, m.s-1,m.s-1, 1, 1, 1, Volt, m.s-1, degree, degree, degree, dbar, degree_C, m.s-1, degree
2023-02-24T00:04:02,42.805,6.029,-0.038,-0.053,-0.033,107.0,107.0,105.0,13.4,1505.2,317.2,-0.8,1.8,2471.18,13.28,0.065,215.6
2023-02-24T00:07:02,42.805,6.029,-0.031,-0.034,-0.002,106.0,107.0,105.0,13.3,1505.2,332.1,-0.8,1.8,2471.168,13.28,0.046,222.4
2023-02-24T00:10:03,42.805,6.029,-0.017,-0.046,-0.043,107.0,106.0,104.0,13.3,1505.2,332.1,-0.8,1.8,2471.175,13.28,0.049,200.3
2023-02-24T00:13:03,42.805,6.029,-0.023,-0.042,-0.005,107.0,105.0,105.0,13.4,1505.2,320.6,-0.8,1.8,2471.156,13.28,0.047,208.7
2023-02-24T00:16:03,42.805,6.029,0.015,-0.065,-0.011,107.0,106.0,105.0,13.3,1505.2,324.2,-0.8,1.8,2471.146,13.28,0.066,167.0
2023-02-24T00:19:03,42.805,6.029,-0.024,-0.04,-0.027,108.0,106.0,104.0,13.4,1505.2,329.7,-0.8,1.8,2471.136,13.28,0.046,211.0
2023-02-24T00:22:02,42.805,6.029,-0.019,-0.052,-0.028,107.0,106.0,105.0,13.4,1505.2,328.4,-0.8,1.8,2471.108,13.28,0.055,200.1
2023-02-24T00:25:03,42.805,6.029,0.007,-0.053,-0.041,107.0,107.0,105.0,13.4,1505.2,318.7,-0.7,1.8,2471.147,13.29,0.053,172.5
2023-02-24T00:28:03,42.805,6.029,-0.017,-0.05,-0.054,106.0,106.0,105.0,13.4,1505.2,322.6,-0.8,1.8,2471.126,13.29,0.052,198.8
2023-02-24T00:31:03,42.805,6.029,-0.045,-0.034,-0.012,108.0,106.0,104.0,13.4,1505.2,337.0,-0.8,1.8,2471.119,13.29,0.056,232.9
2023-02-24T00:34:03,42.805,6.029,-0.029,-0.051,-0.027,107.0,107.0,104.0,13.3,1505.2,337.0,-0.8,1.8,2471.122,13.29,0.058,209.6
2023-02-24T00:37:03,42.805,6.029,-0.017,-0.03,0.002,108.0,106.0,105.0,13.3,1505.2,328.7,-0.8,1.8,2471.122,13.29,0.034,209.5
2023-02-24T00:40:03,42.805,6.029,0.005,-0.06,-0.048,107.0,107.0,105.0,13.3,1505.2,320.9,-0.7,1.8,2471.114,13.29,0.06,175.2
2023-02-24T00:43:03,42.805,6.029,-0.027,-0.038,-0.04,108.0,107.0,105.0,13.4,1505.2,336.5,-0.7,1.8,2471.107,13.29,0.046,215.4
2023-02-24T00:46:03,42.805,6.029,-0.025,-0.048,-0.034,108.0,107.0,105.0,13.3,1505.2,340.4,-0.8,1.8,2471.108,13.29,0.054,207.5
2023-02-24T00:49:03,42.805,6.029,-0.05,-0.047,-0.017,108.0,106.0,104.0,13.4,1505.2,333.0,-0.7,1.8,2471.132,13.29,0.068,226.8
2023-02-24T00:52:03,42.805,6.029,-0.03,-0.037,-0.037,107.0,105.0,105.0,13.4,1505.2,323.4,-0.8,1.8,2471.124,13.29,0.047,219.0
2023-02-24T00:55:03,42.805,6.029,-0.019,-0.071,-0.065,107.0,107.0,105.0,13.3,1505.2,328.1,-0.7,1.8,2471.078,13.29,0.073,195.0
2023-02-24T00:58:03,42.805,6.029,-0.04,-0.047,0.0,107.0,105.0,105.0,13.4,1505.2,323.6,-0.7,1.8,2471.081,13.29,0.061,220.4
2023-02-24T01:04:02,42.805,6.029,-0.033,-0.035,-0.012,108.0,108.0,106.0,13.4,1505.2,337.4,-0.7,1.8,2471.133,13.28,0.048,223.3
2023-02-24T01:07:03,42.805,6.029,-0.037,-0.047,-0.018,107.0,106.0,105.0,13.4,1505.2,325.2,-0.8,1.8,2471.117,13.28,0.059,218.2
2023-02-24T01:10:03,42.805,6.029,-0.022,-0.063,-0.016,107.0,107.0,104.0,13.4,1505.2,325.2,-0.8,1.8,2471.113,13.28,0.066,199.2
2023-02-24T01:13:03,42.805,6.029,-0.034,-0.027,-0.061,108.0,106.0,105.0,13.4,1505.2,335.4,-0.8,1.8,2471.117,13.29,0.043,231.5
2023-02-24T01:16:03,42.805,6.029,-0.005,-0.061,-0.057,106.0,107.0,105.0,13.3,1505.2,322.7,-0.7,1.8,2471.093,13.29,0.061,184.7
2023-02-24T01:19:03,42.805,6.029,-0.042,-0.047,-0.03,108.0,107.0,105.0,13.4,1505.2,332.5,-0.8,1.8,2471.098,13.29,0.063,221.8
2023-02-24T01:22:03,42.805,6.029,-0.01,-0.075,-0.048,107.0,107.0,104.0,13.4,1505.2,315.5,-0.7,1.8,2471.07,13.29,0.075,187.6
2023-02-24T01:25:03,42.805,6.029,-0.027,-0.066,-0.045,108.0,107.0,106.0,13.3,1505.2,331.8,-0.8,1.8,2471.071,13.29,0.071,202.2
2023-02-24T01:28:03,42.805,6.029,-0.044,-0.037,-0.036,107.0,107.0,106.0,13.4,1505.2,341.2,-0.8,1.8,2471.116,13.29,0.057,229.9
2023-02-24T01:31:03,42.805,6.029,-0.032,-0.054,0.005,107.0,106.0,105.0,13.4,1505.2,340.9,-0.7,1.8,2471.073,13.29,0.062,210.7
2023-02-24T01:34:03,42.805,6.029,-0.034,-0.047,-0.037,108.0,106.0,105.0,13.4,1505.2,328.3,-0.8,1.8,2471.082,13.29,0.058,215.9
2023-02-24T01:37:03,42.805,6.029,-0.02,-0.044,-0.027,108.0,106.0,105.0,13.3,1505.2,329.0,-0.8,1.8,2471.068,13.29,0.048,204.4
2023-02-24T01:40:03,42.805,6.029,-0.043,-0.037,-0.038,108.0,106.0,104.0,13.4,1505.2,325.8,-0.8,1.8,2471.043,13.29,0.056,229.3
2023-02-24T01:43:03,42.805,6.029,-0.034,-0.044,-0.056,107.0,107.0,106.0,13.4,1505.2,331.1,-0.8,1.8,2471.062,13.29,0.055,217.7
2023-02-24T01:46:03,42.805,6.029,-0.004,-0.032,-0.005,108.0,107.0,105.0,13.4,1505.2,331.3,-0.8,1.8,2471.072,13.29,0.032,187.1
2023-02-24T01:49:03,42.805,6.029,-0.022,-0.056,-0.032,108.0,106.0,105.0,13.4,1505.2,318.2,-0.8,1.8,2471.082,13.29,0.06,201.4
2023-02-24T01:52:03,42.805,6.029,-0.037,-0.035,-0.038,107.0,107.0,105.0,13.3,1505.2,319.8,-0.8,1.8,2471.064,13.29,0.05,226.6
2023-02-24T01:55:03,42.805,6.029,-0.043,-0.04,-0.009,108.0,106.0,104.0,13.3,1505.2,326.5,-0.8,1.8,2471.089,13.29,0.058,227.1
2023-02-24T01:58:03,42.805,6.029,-0.038,-0.041,-0.025,108.0,106.0,105.0,13.3,1505.2,324.4,-0.8,1.8,2471.071,13.29,0.055,222.8
2023-02-24T02:04:03,42.805,6.029,-0.03,-0.041,-0.034,108.0,107.0,105.0,13.4,1505.2,328.3,-0.8,1.8,2471.106,13.28,0.05,216.2
2023-02-24T02:07:03,42.805,6.029,-0.05,-0.041,-0.056,107.0,106.0,105.0,13.4,1505.2,325.3,-0.7,1.8,2471.095,13.28,0.064,230.7
2023-02-24T02:10:03,42.805,6.029,-0.035,-0.063,-0.008,107.0,107.0,106.0,13.3,1505.2,331.9,-0.8,1.8,2471.107,13.28,0.072,209.1
2023-02-24T02:13:03,42.805,6.029,-0.034,-0.037,-0.025,108.0,107.0,104.0,13.4,1505.2,321.4,-0.8,1.8,2471.069,13.29,0.05,222.6
2023-02-24T02:16:03,42.805,6.029,-0.035,-0.049,-0.006,108.0,107.0,106.0,13.4,1505.2,318.6,-0.7,1.8,2471.065,13.29,0.06,215.5
2023-02-24T02:19:03,42.805,6.029,-0.019,-0.048,-0.05,107.0,107.0,105.0,13.4,1505.2,321.0,-0.7,1.8,2471.105,13.29,0.051,201.6
2023-02-24T02:22:03,42.805,6.029,-0.029,-0.039,-0.018,107.0,107.0,105.0,13.4,1505.2,324.6,-0.7,1.8,2471.093,13.29,0.048,216.6
2023-02-24T02:25:03,42.805,6.029,-0.024,-0.038,-0.046,108.0,107.0,104.0,13.4,1505.2,330.3,-0.8,1.8,2471.037,13.29,0.044,212.3
2023-02-24T02:28:03,42.805,6.029,-0.02,-0.046,-0.022,107.0,108.0,105.0,13.4,1505.2,323.4,-0.7,1.8,2471.074,13.29,0.05,203.5
2023-02-24T02:31:03,42.805,6.029,-0.041,-0.055,-0.024,108.0,107.0,105.0,13.4,1505.2,329.9,-0.8,1.8,2471.025,13.29,0.068,216.7
2023-02-24T02:34:03,42.805,6.029,-0.023,-0.061,-0.015,106.0,107.0,106.0,13.3,1505.2,316.1,-0.8,1.8,2471.033,13.29,0.065,200.7
2023-02-24T02:37:03,42.805,6.029,-0.016,-0.047,-0.034,108.0,107.0,105.0,13.4,1505.2,323.8,-0.7,1.8,2471.049,13.29,0.049,198.8
2023-02-24T02:40:03,42.805,6.029,-0.032,-0.054,-0.015,108.0,106.0,105.0,13.4,1505.2,323.2,-0.8,1.8,2471.028,13.29,0.062,210.7
2023-02-24T02:43:03,42.805,6.029,-0.03,-0.049,-0.019,108.0,106.0,106.0,13.3,1505.2,323.6,-0.8,1.8,2471.045,13.29,0.057,211.5
2023-02-24T02:46:03,42.805,6.029,-0.03,-0.026,-0.01,107.0,107.0,106.0,13.4,1505.2,326.0,-0.8,1.8,2471.033,13.29,0.039,229.1
2023-02-24T02:49:03,42.805,6.029,-0.037,-0.044,-0.048,107.0,106.0,105.0,13.3,1505.2,316.6,-0.8,1.8,2471.004,13.29,0.057,220.1
2023-02-24T02:52:03,42.805,6.029,-0.038,-0.041,-0.026,107.0,107.0,106.0,13.4,1505.2,327.3,-0.8,1.8,2470.985,13.29,0.055,222.8
2023-02-24T02:55:03,42.805,6.029,-0.037,-0.033,-0.052,108.0,106.0,105.0,13.4,1505.2,331.3,-0.8,1.8,2471.014,13.29,0.049,228.3
2023-02-24T02:58:03,42.805,6.029,-0.011,-0.064,-0.021,107.0,107.0,105.0,13.4,1505.2,322.7,-0.8,1.8,2470.987,13.29,0.064,189.8
2023-02-24T03:04:03,42.805,6.029,-0.045,-0.044,-0.013,108.0,107.0,105.0,13.3,1505.2,330.9,-0.8,1.8,2471.058,13.28,0.062,225.6
2023-02-24T03:07:03,42.805,6.029,-0.031,-0.027,-0.012,107.0,107.0,105.0,13.4,1505.2,338.7,-0.8,1.8,2471.081,13.28,0.041,228.9
2023-02-24T03:10:03,42.805,6.029,-0.014,-0.04,0.0,107.0,108.0,104.0,13.4,1505.2,325.8,-0.8,1.8,2471.083,13.28,0.042,199.3
2023-02-24T03:13:03,42.805,6.029,-0.029,-0.051,-0.03,108.0,107.0,105.0,13.4,1505.2,325.6,-0.8,1.8,2471.042,13.29,0.058,209.6
2023-02-24T03:16:03,42.805,6.029,-0.032,-0.031,-0.014,108.0,107.0,105.0,13.4,1505.2,333.4,-0.7,1.8,2471.062,13.29,0.044,225.9
2023-02-24T03:19:03,42.805,6.029,-0.023,-0.035,-0.005,107.0,106.0,105.0,13.4,1505.2,322.9,-0.8,1.8,2471.027,13.29,0.041,213.3
2023-02-24T03:22:03,42.805,6.029,-0.026,-0.033,0.004,107.0,105.0,104.0,13.4,1505.2,317.7,-0.8,1.8,2471.071,13.29,0.042,218.2
2023-02-24T03:25:03,42.805,6.029,-0.02,-0.06,-0.017,109.0,108.0,105.0,13.3,1505.2,325.2,-0.8,1.8,2471.002,13.29,0.063,198.4
2023-02-24T03:28:03,42.805,6.029,-0.025,-0.051,-0.01,107.0,108.0,105.0,13.4,1505.2,330.7,-0.7,1.8,2471.026,13.29,0.056,206.1
2023-02-24T03:31:03,42.805,6.029,-0.048,-0.038,-0.044,108.0,106.0,105.0,13.4,1505.2,330.7,-0.8,1.8,2470.992,13.29,0.061,231.6
2023-02-24T03:34:03,42.805,6.029,-0.023,-0.041,-0.032,108.0,106.0,106.0,13.4,1505.2,321.3,-0.7,1.8,2471.004,13.29,0.047,209.3
2023-02-24T03:37:03,42.805,6.029,-0.031,-0.045,-0.025,108.0,108.0,105.0,13.3,1505.2,319.4,-0.7,1.8,2470.977,13.29,0.054,214.6
2023-02-24T03:40:03,42.805,6.029,-0.022,-0.035,-0.04,108.0,109.0,105.0,13.3,1505.2,318.7,-0.8,1.8,2471.027,13.29,0.041,212.2
2023-02-24T03:43:03,42.805,6.029,-0.022,-0.039,-0.028,109.0,108.0,105.0,13.4,1505.2,331.4,-0.7,1.8,2471.03,13.29,0.044,209.4
2023-02-24T03:46:03,42.805,6.029,-0.021,-0.045,-0.055,107.0,107.0,105.0,13.4,1505.2,328.1,-0.8,1.8,2470.983,13.29,0.049,205.0
2023-02-24T03:49:03,42.805,6.029,-0.053,-0.015,0.012,107.0,107.0,106.0,13.4,1505.2,326.8,-0.7,1.8,2471.031,13.29,0.055,254.2
2023-02-24T03:52:03,42.805,6.029,-0.014,-0.052,-0.047,107.0,108.0,105.0,13.4,1505.2,330.7,-0.8,1.8,2471.021,13.29,0.053,195.1
2023-02-24T03:55:03,42.805,6.029,-0.05,-0.037,-0.015,106.0,107.0,105.0,13.4,1505.2,330.9,-0.7,1.8,2471.053,13.29,0.062,233.5
2023-02-24T03:58:03,42.805,6.029,-0.03,-0.044,0.004,108.0,106.0,105.0,13.4,1505.2,323.9,-0.8,1.8,2470.974,13.29,0.053,214.3
2023-02-24T04:04:03,42.805,6.029,-0.041,-0.052,-0.062,108.0,107.0,105.0,13.4,1505.2,332.5,-0.8,1.8,2471.071,13.28,0.066,218.3
2023-02-24T04:07:03,42.805,6.029,-0.035,-0.012,-0.018,108.0,107.0,105.0,13.4,1505.2,338.0,-0.8,1.8,2471.012,13.28,0.037,251.1
2023-02-24T04:10:03,42.805,6.029,-0.037,-0.03,-0.019,107.0,107.0,106.0,13.4,1505.2,338.3,-0.7,1.8,2471.069,13.29,0.047,231.0
2023-02-24T04:13:03,42.805,6.029,-0.041,-0.041,-0.037,107.0,108.0,105.0,13.4,1505.2,317.1,-0.8,1.8,2471.071,13.29,0.057,225.0
2023-02-24T04:16:03,42.805,6.029,-0.029,-0.033,-0.043,109.0,107.0,105.0,13.4,1505.2,336.8,-0.7,1.8,2471.011,13.29,0.043,221.3
2023-02-24T04:19:03,42.805,6.029,-0.036,-0.043,-0.037,107.0,107.0,105.0,13.4,1505.2,337.3,-0.7,1.8,2471.042,13.29,0.056,219.9
2023-02-24T04:22:03,42.805,6.029,-0.036,-0.051,-0.05,109.0,107.0,105.0,13.4,1505.2,318.3,-0.8,1.8,2471.023,13.29,0.062,215.2
2023-02-24T04:25:03,42.805,6.029,-0.043,-0.044,0.005,110.0,107.0,105.0,13.4,1505.2,341.2,-0.8,1.8,2470.995,13.29,0.061,224.3
2023-02-24T04:28:03,42.805,6.029,-0.022,-0.04,-0.033,108.0,107.0,105.0,13.3,1505.2,321.4,-0.8,1.8,2471.007,13.29,0.045,208.8
2023-02-24T04:31:03,42.805,6.029,-0.017,-0.039,-0.02,108.0,107.0,105.0,13.3,1505.2,324.8,-0.8,1.8,2470.968,13.29,0.042,203.5
2023-02-24T04:34:03,42.805,6.029,-0.023,-0.035,-0.031,107.0,108.0,106.0,13.4,1505.2,338.3,-0.8,1.8,2471.079,13.29,0.041,213.3
2023-02-24T04:37:03,42.805,6.029,-0.033,-0.045,-0.026,109.0,108.0,105.0,13.4,1505.2,318.2,-0.7,1.8,2471.029,13.29,0.055,216.3
2023-02-24T04:40:03,42.805,6.029,-0.017,-0.046,-0.033,107.0,107.0,106.0,13.4,1505.2,319.3,-0.8,1.8,2471.033,13.29,0.049,200.3
2023-02-24T04:43:03,42.805,6.029,-0.033,-0.028,-0.03,108.0,107.0,104.0,13.4,1505.2,331.2,-0.8,1.9,2471.024,13.29,0.043,229.7
2023-02-24T04:46:03,42.805,6.029,-0.032,-0.043,-0.009,108.0,107.0,106.0,13.3,1505.2,325.0,-0.8,1.8,2471.031,13.29,0.053,216.7
2023-02-24T04:49:03,42.805,6.029,-0.027,-0.048,-0.019,108.0,107.0,107.0,13.4,1505.2,331.6,-0.8,1.8,2470.958,13.29,0.055,209.4
2023-02-24T04:52:03,42.805,6.029,-0.033,-0.046,-0.013,107.0,107.0,106.0,13.4,1505.2,330.2,-0.8,1.8,2470.979,13.29,0.056,215.7
2023-02-24T04:55:03,42.805,6.029,-0.02,-0.061,-0.011,108.0,106.0,104.0,13.4,1505.2,324.1,-0.8,1.8,2470.99,13.29,0.064,198.1
2023-02-24T04:58:03,42.805,6.029,-0.025,-0.049,-0.044,107.0,107.0,106.0,13.4,1505.2,329.1,-0.8,1.8,2471.015,13.29,0.055,207.0
2023-02-24T05:04:03,42.805,6.029,-0.025,-0.048,-0.004,108.0,106.0,105.0,13.4,1505.2,327.1,-0.8,1.8,2471.052,13.28,0.054,207.5
2023-02-24T05:07:03,42.805,6.029,0.0,-0.051,-0.028,108.0,107.0,105.0,13.3,1505.2,329.3,-0.8,1.8,2471.058,13.28,0.051,180.0
2023-02-24T05:10:03,42.805,6.029,-0.04,-0.062,-0.042,108.0,107.0,105.0,13.4,1505.2,337.3,-0.8,1.8,2471.032,13.28,0.073,212.8
2023-02-24T05:13:03,42.805,6.029,-0.022,-0.051,-0.019,108.0,107.0,106.0,13.4,1505.2,326.5,-0.8,1.8,2471.089,13.29,0.055,203.3
2023-02-24T05:16:03,42.805,6.029,-0.013,-0.044,-0.052,107.0,107.0,105.0,13.4,1505.2,335.4,-0.7,1.8,2471.038,13.29,0.045,196.5
2023-02-24T05:19:03,42.805,6.029,-0.029,-0.047,-0.015,109.0,107.0,105.0,13.4,1505.2,331.3,-0.7,1.8,2471.048,13.29,0.055,211.7
2023-02-24T05:22:03,42.805,6.029,-0.015,-0.05,-0.039,107.0,106.0,105.0,13.4,1505.2,331.4,-0.8,1.8,2471.025,13.29,0.052,196.7
2023-02-24T05:25:03,42.805,6.029,-0.042,-0.033,-0.012,107.0,107.0,105.0,13.4,1505.2,340.6,-0.8,1.9,2470.972,13.29,0.053,231.8
2023-02-24T05:28:03,42.805,6.029,-0.041,-0.03,-0.003,109.0,107.0,106.0,13.4,1505.2,332.5,-0.8,1.8,2471.032,13.29,0.05,233.8
2023-02-24T05:31:03,42.805,6.029,-0.022,-0.065,-0.026,107.0,109.0,106.0,13.4,1505.2,334.3,-0.8,1.8,2471.036,13.29,0.068,198.7
2023-02-24T05:34:03,42.805,6.029,-0.004,-0.06,-0.037,109.0,107.0,105.0,13.4,1505.2,339.5,-0.8,1.8,2471.048,13.29,0.06,183.8
2023-02-24T05:37:03,42.805,6.029,-0.016,-0.06,-0.033,108.0,108.0,105.0,13.3,1505.2,316.6,-0.8,1.8,2471.009,13.29,0.062,194.9
2023-02-24T05:40:03,42.805,6.029,-0.029,-0.038,-0.033,107.0,106.0,105.0,13.4,1505.2,320.4,-0.8,1.8,2471.034,13.29,0.047,217.3
2023-02-24T05:43:03,42.805,6.029,-0.039,-0.028,-0.009,107.0,107.0,105.0,13.4,1505.2,322.6,-0.7,1.8,2471.03,13.29,0.048,234.3
2023-02-24T05:46:03,42.805,6.029,-0.019,-0.062,-0.024,108.0,107.0,106.0,13.4,1505.2,326.5,-0.7,1.8,2471.055,13.29,0.064,197.0
2023-02-24T05:49:03,42.805,6.029,-0.01,-0.057,-0.049,107.0,108.0,105.0,13.4,1505.2,323.6,-0.8,1.8,2470.986,13.29,0.057,189.9
2023-02-24T05:52:03,42.805,6.029,-0.027,-0.052,-0.021,109.0,107.0,105.0,13.4,1505.2,316.0,-0.8,1.8,2471.056,13.29,0.058,207.4
2023-02-24T05:55:03,42.805,6.029,-0.034,-0.027,-0.027,109.0,108.0,105.0,13.4,1505.2,333.8,-0.8,1.8,2470.997,13.29,0.043,231.5
2023-02-24T05:58:03,42.805,6.029,-0.015,-0.061,-0.007,108.0,108.0,105.0,13.4,1505.2,326.0,-0.8,1.8,2471.056,13.29,0.062,193.8
2023-02-24T06:04:03,42.805,6.029,-0.02,-0.051,-0.025,108.0,108.0,104.0,13.3,1505.2,328.6,-0.7,1.8,2471.103,13.28,0.054,201.4
2023-02-24T06:07:03,42.805,6.029,-0.033,-0.043,-0.035,108.0,107.0,105.0,13.4,1505.2,333.0,-0.7,1.8,2471.088,13.28,0.054,217.5
2023-02-24T06:10:03,42.805,6.029,-0.021,-0.038,-0.008,108.0,107.0,105.0,13.4,1505.2,316.1,-0.8,1.8,2471.068,13.29,0.043,208.9
2023-02-24T06:13:03,42.805,6.029,-0.023,-0.064,-0.037,109.0,107.0,104.0,13.3,1505.2,331.3,-0.8,1.8,2471.084,13.29,0.068,199.8
2023-02-24T06:16:03,42.805,6.029,-0.007,-0.032,-0.051,108.0,107.0,105.0,13.3,1505.2,326.5,-0.8,1.9,2471.094,13.29,0.032,192.3
2023-02-24T06:19:03,42.805,6.029,-0.014,-0.03,0.003,109.0,108.0,106.0,13.3,1505.2,326.0,-0.8,1.8,2471.103,13.29,0.033,205.0
2023-02-24T06:22:03,42.805,6.029,-0.002,-0.064,-0.03,109.0,107.0,105.0,13.4,1505.2,318.1,-0.7,1.8,2471.077,13.29,0.064,181.8
2023-02-24T06:25:03,42.805,6.029,-0.036,-0.036,-0.015,109.0,107.0,105.0,13.4,1505.2,332.1,-0.7,1.8,2471.052,13.29,0.05,225.0
2023-02-24T06:28:03,42.805,6.029,-0.008,-0.074,-0.02,107.0,107.0,105.0,13.4,1505.2,328.5,-0.8,1.8,2471.117,13.29,0.074,186.2
2023-02-24T06:31:03,42.805,6.029,-0.033,-0.057,-0.038,110.0,106.0,106.0,13.4,1505.2,329.5,-0.7,1.8,2471.056,13.29,0.065,210.1
2023-02-24T06:34:03,42.805,6.029,-0.03,-0.043,0.0,108.0,107.0,106.0,13.4,1505.2,331.4,-0.8,1.8,2471.097,13.29,0.052,214.9
2023-02-24T06:37:03,42.805,6.029,-0.043,-0.026,0.013,107.0,107.0,105.0,13.4,1505.2,332.5,-0.8,1.8,2471.082,13.29,0.05,238.8
2023-02-24T06:40:03,42.805,6.029,-0.036,-0.054,-0.011,108.0,107.0,106.0,13.4,1505.2,323.1,-0.8,1.8,2471.112,13.29,0.064,213.7
2023-02-24T06:43:03,42.805,6.029,-0.006,-0.065,-0.027,109.0,108.0,106.0,13.4,1505.2,318.2,-0.8,1.8,2471.085,13.29,0.065,185.3
2023-02-24T06:46:03,42.805,6.029,-0.029,-0.058,-0.042,107.0,107.0,105.0,13.4,1505.2,327.2,-0.8,1.8,2471.104,13.29,0.064,206.6
2023-02-24T06:49:03,42.805,6.029,-0.029,-0.046,-0.025,108.0,108.0,106.0,13.4,1505.2,324.1,-0.8,1.8,2471.088,13.29,0.054,212.2
2023-02-24T06:52:03,42.805,6.029,-0.007,-0.067,-0.038,108.0,107.0,104.0,13.4,1505.2,325.1,-0.8,1.8,2471.147,13.29,0.067,186.0
2023-02-24T06:55:03,42.805,6.029,-0.007,-0.043,-0.007,108.0,109.0,104.0,13.3,1505.2,325.8,-0.8,1.8,2471.129,13.29,0.043,189.2
2023-02-24T06:58:03,42.805,6.029,-0.028,-0.034,-0.011,108.0,107.0,106.0,13.4,1505.2,340.3,-0.8,1.8,2471.093,13.29,0.044,219.5
2023-02-24T07:04:03,42.805,6.029,-0.009,-0.054,-0.045,108.0,107.0,105.0,13.4,1505.2,330.3,-0.8,1.8,2471.151,13.28,0.054,189.5
2023-02-24T07:07:03,42.805,6.029,-0.021,-0.042,-0.023,107.0,108.0,105.0,13.4,1505.2,331.1,-0.7,1.8,2471.159,13.28,0.046,206.6
2023-02-24T07:10:03,42.805,6.029,-0.02,-0.045,-0.049,108.0,108.0,106.0,13.4,1505.2,317.3,-0.7,1.8,2471.16,13.28,0.049,204.0
2023-02-24T07:13:03,42.805,6.029,-0.025,-0.061,-0.012,108.0,108.0,105.0,13.3,1505.2,330.1,-0.8,1.8,2471.133,13.29,0.065,202.3
2023-02-24T07:16:03,42.805,6.029,-0.028,-0.052,-0.019,109.0,107.0,105.0,13.4,1505.2,321.3,-0.8,1.8,2471.179,13.29,0.059,208.3
2023-02-24T07:19:03,42.805,6.029,-0.025,-0.036,-0.042,109.0,108.0,105.0,13.4,1505.2,322.6,-0.7,1.8,2471.168,13.29,0.043,214.8
2023-02-24T07:22:03,42.805,6.029,-0.043,-0.045,-0.031,108.0,108.0,105.0,13.3,1505.2,337.8,-0.8,1.8,2471.143,13.29,0.062,223.7
2023-02-24T07:25:03,42.805,6.029,-0.028,-0.046,-0.031,108.0,108.0,106.0,13.4,1505.2,326.3,-0.7,1.8,2471.144,13.29,0.053,211.3
2023-02-24T07:28:03,42.805,6.029,-0.059,-0.052,-0.008,110.0,107.0,106.0,13.3,1505.2,330.5,-0.7,1.8,2471.181,13.29,0.078,228.6
2023-02-24T07:31:03,42.805,6.029,-0.05,-0.035,-0.04,109.0,108.0,106.0,13.4,1505.2,330.3,-0.8,1.8,2471.158,13.29,0.061,235.0
2023-02-24T07:34:03,42.805,6.029,-0.034,-0.048,-0.027,108.0,108.0,106.0,13.4,1505.2,327.8,-0.8,1.8,2471.158,13.29,0.058,215.3
2023-02-24T07:37:03,42.805,6.029,-0.039,-0.055,-0.004,108.0,108.0,106.0,13.4,1505.2,326.8,-0.7,1.8,2471.18,13.29,0.067,215.3
2023-02-24T07:40:03,42.805,6.029,-0.038,-0.048,0.004,109.0,108.0,105.0,13.4,1505.2,326.0,-0.7,1.8,2471.152,13.29,0.061,218.4
2023-02-24T07:43:03,42.805,6.029,-0.045,-0.035,-0.03,107.0,107.0,106.0,13.4,1505.2,324.9,-0.8,1.8,2471.17,13.29,0.057,232.1
2023-02-24T07:46:03,42.805,6.029,-0.02,-0.048,-0.033,108.0,107.0,104.0,13.3,1505.2,317.7,-0.8,1.8,2471.16,13.29,0.052,202.6
2023-02-24T07:49:03,42.805,6.029,-0.032,-0.035,0.0,110.0,107.0,104.0,13.3,1505.2,333.0,-0.7,1.8,2471.197,13.29,0.047,222.4
2023-02-24T07:52:03,42.805,6.029,-0.017,-0.045,-0.024,108.0,109.0,105.0,13.4,1505.2,323.6,-0.7,1.8,2471.183,13.29,0.048,200.7
2023-02-24T07:55:03,42.805,6.029,-0.039,-0.049,-0.006,108.0,107.0,105.0,13.3,1505.2,331.7,-0.7,1.8,2471.143,13.29,0.062,218.5
2023-02-24T07:58:03,42.805,6.029,-0.02,-0.038,-0.02,109.0,108.0,105.0,13.4,1505.2,329.1,-0.8,1.8,2471.18,13.29,0.042,207.8
2023-02-24T08:04:03,42.805,6.029,-0.048,-0.063,-0.031,108.0,108.0,105.0,13.3,1505.2,323.9,-0.8,1.8,2471.256,13.28,0.079,217.3
2023-02-24T08:07:03,42.805,6.029,-0.031,-0.051,-0.024,108.0,107.0,105.0,13.3,1505.2,323.6,-0.8,1.8,2471.249,13.28,0.059,211.3
2023-02-24T08:10:03,42.805,6.029,-0.039,-0.045,-0.008,108.0,107.0,106.0,13.4,1505.2,330.3,-0.8,1.8,2471.238,13.29,0.059,220.9
2023-02-24T08:13:03,42.805,6.029,-0.037,-0.029,-0.029,107.0,108.0,105.0,13.4,1505.2,326.0,-0.8,1.8,2471.264,13.29,0.047,231.9
2023-02-24T08:16:03,42.805,6.029,-0.05,-0.035,-0.035,108.0,107.0,106.0,13.4,1505.2,329.4,-0.8,1.8,2471.216,13.29,0.061,235.0
2023-02-24T08:19:03,42.805,6.029,-0.037,-0.05,-0.029,110.0,107.0,104.0,13.4,1505.2,322.7,-0.8,1.8,2471.248,13.29,0.062,216.5
2023-02-24T08:22:03,42.805,6.029,-0.018,-0.037,-0.019,108.0,108.0,105.0,13.4,1505.2,326.0,-0.8,1.8,2471.221,13.29,0.041,205.9
2023-02-24T08:25:03,42.805,6.029,-0.042,-0.04,-0.014,108.0,107.0,105.0,13.3,1505.2,318.3,-0.8,1.8,2471.219,13.29,0.057,226.4
2023-02-24T08:28:03,42.805,6.029,-0.05,-0.036,-0.011,109.0,109.0,105.0,13.4,1505.2,329.4,-0.8,1.8,2471.226,13.29,0.061,234.2
2023-02-24T08:31:03,42.805,6.029,-0.022,-0.035,-0.042,108.0,108.0,106.0,13.4,1505.2,338.3,-0.7,1.8,2471.219,13.29,0.041,212.2
2023-02-24T08:34:03,42.805,6.029,-0.026,-0.034,-0.016,109.0,107.0,105.0,13.4,1505.2,315.5,-0.8,1.8,2471.185,13.29,0.042,217.4
2023-02-24T08:37:03,42.805,6.029,-0.037,-0.041,-0.029,109.0,107.0,105.0,13.4,1505.2,329.6,-0.8,1.8,2471.238,13.29,0.055,222.1
2023-02-24T08:40:03,42.805,6.029,-0.041,-0.046,-0.034,108.0,108.0,105.0,13.3,1505.2,330.7,-0.8,1.8,2471.25,13.29,0.061,221.7
2023-02-24T08:43:03,42.805,6.029,-0.037,-0.044,-0.029,109.0,109.0,106.0,13.3,1505.2,322.1,-0.8,1.8,2471.227,13.29,0.057,220.1
2023-02-24T08:46:03,42.805,6.029,-0.04,-0.039,-0.032,108.0,108.0,106.0,13.3,1505.2,325.7,-0.7,1.8,2471.229,13.29,0.055,225.7
2023-02-24T08:49:03,42.805,6.029,-0.03,-0.036,-0.035,108.0,108.0,105.0,13.4,1505.2,339.4,-0.8,1.8,2471.227,13.29,0.046,219.8
2023-02-24T08:52:03,42.805,6.029,-0.05,-0.052,-0.031,109.0,107.0,105.0,13.4,1505.2,328.4,-0.7,1.8,2471.244,13.29,0.072,223.9
2023-02-24T08:55:03,42.805,6.029,-0.047,-0.045,-0.019,108.0,107.0,105.0,13.3,1505.2,335.7,-0.7,1.8,2471.238,13.29,0.065,226.2
2023-02-24T08:58:03,42.805,6.029,-0.049,-0.031,-0.009,108.0,107.0,105.0,13.4,1505.2,321.9,-0.8,1.9,2471.204,13.29,0.057,237.7
2023-02-24T09:04:03,42.805,6.029,-0.038,-0.023,-0.006,108.0,107.0,106.0,13.4,1505.2,331.6,-0.8,1.8,2471.287,13.28,0.044,238.8
2023-02-24T09:07:03,42.805,6.029,-0.037,-0.024,-0.018,108.0,107.0,105.0,13.3,1505.2,327.6,-0.8,1.8,2471.272,13.28,0.044,237.0
2023-02-24T09:10:03,42.805,6.029,-0.044,-0.028,-0.022,109.0,108.0,104.0,13.3,1505.2,336.9,-0.7,1.9,2471.276,13.29,0.052,237.5
2023-02-24T09:13:03,42.805,6.029,-0.029,-0.024,-0.011,109.0,108.0,105.0,13.4,1505.2,325.0,-0.7,1.8,2471.321,13.29,0.037,230.4
2023-02-24T09:16:03,42.805,6.029,-0.035,-0.014,-0.009,109.0,108.0,105.0,13.4,1505.2,338.5,-0.7,1.8,2471.267,13.29,0.037,248.2
2023-02-24T09:19:03,42.805,6.029,-0.032,-0.05,-0.026,108.0,107.0,105.0,13.4,1505.2,317.7,-0.7,1.8,2471.252,13.29,0.059,212.6
2023-02-24T09:22:03,42.805,6.029,-0.023,-0.036,-0.018,108.0,107.0,105.0,13.4,1505.2,329.0,-0.8,1.8,2471.231,13.29,0.042,212.6
2023-02-24T09:25:03,42.805,6.029,-0.045,-0.026,-0.009,108.0,107.0,106.0,13.4,1505.2,327.9,-0.8,1.8,2471.279,13.29,0.051,240.0
2023-02-24T09:28:03,42.805,6.029,-0.026,-0.033,-0.015,109.0,109.0,105.0,13.4,1505.2,320.9,-0.8,1.8,2471.236,13.29,0.042,218.2
2023-02-24T09:31:03,42.805,6.029,-0.069,-0.041,-0.046,108.0,108.0,106.0,13.3,1505.2,328.0,-0.8,1.8,2471.236,13.29,0.08,239.3
2023-02-24T09:34:03,42.805,6.029,-0.046,-0.032,-0.048,107.0,107.0,105.0,13.4,1505.2,318.8,-0.7,1.8,2471.27,13.29,0.056,235.2
2023-02-24T09:37:03,42.805,6.029,-0.022,-0.031,-0.037,109.0,107.0,106.0,13.4,1505.2,315.5,-0.7,1.8,2471.255,13.29,0.038,215.4
2023-02-24T09:40:03,42.805,6.029,-0.042,-0.033,-0.01,109.0,108.0,105.0,13.4,1505.2,326.8,-0.7,1.8,2471.273,13.29,0.053,231.8
2023-02-24T09:43:03,42.805,6.029,-0.032,-0.037,-0.007,109.0,108.0,105.0,13.4,1505.2,317.4,-0.7,1.8,2471.251,13.29,0.048,220.9
2023-02-24T09:46:03,42.805,6.029,-0.049,-0.022,-0.041,109.0,109.0,105.0,13.4,1505.2,320.8,-0.7,1.8,2471.268,13.29,0.053,245.8
2023-02-24T09:49:03,42.805,6.029,-0.064,-0.044,-0.022,108.0,108.0,105.0,13.4,1505.2,327.3,-0.8,1.8,2471.234,13.29,0.077,235.5